Weather History for Rickenbacker, OH

Change the Weather History Date:

Friday, April 19, 2013

  Actual Average Record
Temperature  
Mean Temperature 58 °F -  
Max Temperature 74 °F 64 °F 86 °F (2002)
Min Temperature 41 °F 44 °F 33 °F (1997)
Degree Days  
Heating Degree Days 8    
Growing Degree Days 8 (Base 50)    
Moisture  
Dew Point 40 °F    
Average Humidity 60    
Maximum Humidity 84    
Minimum Humidity 42    
Precipitation  
Precipitation 0.00 in - - ()
Sea Level Pressure  
Sea Level Pressure 29.71 in    
Wind  
Wind Speed 18 mph (SW)    
Max Wind Speed 29 mph    
Max Gust Speed 41 mph    
Visibility 10 miles    
Events Rain    
Averages and records for this station are not official NWS values.
T = Trace of Precipitation, MM = Missing Value Source: NWS Daily Summary

Daily Weather History Graph

Daily Weather History Graph

Search for Another Location

Airport:

Trip Planner

Search our weather history database for the weather conditions in past years. The results will help you decide how hot, cold, wet, or windy it might be!

Date:

Astronomy

Apr. 19, 2013 Rise Set
Actual Time 6:47 AM EDT 8:14 PM EDT
Civil Twilight 6:19 AM EDT 8:42 PM EDT
Nautical Twilight 5:45 AM EDT 9:16 PM EDT
Astronomical Twilight 5:09 AM EDT 9:52 PM EDT
Moon 1:58 PM EDT (4/19) 3:02 AM EDT (4/19)
Length of Visible Light 14h 22m
Length of Day
13h 26m
First Quarter, 61% of the Moon is Illuminated
Apr 19
First Quarter
Apr 25
Full
May 2
Last Quarter
May 9
New
May 18
First Quarter

Hourly Weather History & Observations

Time (EDT) Temp. Windchill Dew Point Humidity Pressure Visibility Wind Dir Wind Speed Gust Speed Precip Events Conditions
12:15 AM 74.5 °F - 51.4 °F 44% 29.65 in 10.0 mi South 12.7 mph - N/A   Clear
12:35 AM 73.6 °F - 51.4 °F 46% 29.64 in 10.0 mi SSE 11.5 mph - N/A   Clear
12:55 AM 73.2 °F - 51.3 °F 46% 29.63 in 10.0 mi South 13.8 mph 18.4 mph N/A   Clear
1:15 AM 73.4 °F - 50.5 °F 45% 29.63 in 10.0 mi South 17.3 mph 21.9 mph N/A   Clear
1:35 AM 73.8 °F - 49.5 °F 42% 29.62 in 10.0 mi South 18.4 mph 24.2 mph N/A   Clear
1:55 AM 73.6 °F - 49.1 °F 42% 29.61 in 10.0 mi South 16.1 mph 21.9 mph N/A   Clear
2:15 AM 73.2 °F - 48.7 °F 42% 29.60 in 10.0 mi South 16.1 mph - N/A   Clear
2:35 AM 72.7 °F - 48.9 °F 43% 29.58 in 10.0 mi South 17.3 mph - N/A   Clear
2:55 AM 72.7 °F - 49.1 °F 43% 29.57 in 10.0 mi South 17.3 mph 23.0 mph N/A   Clear
3:15 AM 72.7 °F - 49.1 °F 43% 29.56 in 10.0 mi South 19.6 mph 26.5 mph N/A   Clear
3:35 AM 72.9 °F - 49.1 °F 43% 29.54 in 10.0 mi South 17.3 mph 25.3 mph N/A   Clear
3:55 AM 72.7 °F - 49.6 °F 44% 29.52 in 10.0 mi SSE 19.6 mph 26.5 mph N/A   Clear
4:15 AM 72.5 °F - 50.0 °F 45% 29.53 in 10.0 mi South 20.7 mph 26.5 mph N/A   Scattered Clouds
4:35 AM 72.5 °F - 50.5 °F 46% 29.52 in 10.0 mi South 19.6 mph 26.5 mph N/A   Scattered Clouds
4:55 AM 72.3 °F - 51.1 °F 47% 29.50 in 10.0 mi South 19.6 mph 27.6 mph N/A   Clear
5:15 AM 72.1 °F - 51.3 °F 48% 29.50 in 10.0 mi South 19.6 mph 27.6 mph N/A   Scattered Clouds
5:35 AM 72.0 °F - 52.3 °F 50% 29.50 in 10.0 mi South 19.6 mph - N/A Rain Light Rain
5:55 AM 69.4 °F - 55.0 °F 60% 29.50 in 10.0 mi South 15.0 mph - N/A Rain Rain
6:15 AM 67.3 °F - 56.5 °F 68% 29.48 in 10.0 mi SSE 15.0 mph 24.2 mph N/A Rain Light Rain
6:55 AM 67.1 °F - 57.2 °F 70% 29.44 in 10.0 mi SSE 19.6 mph 29.9 mph N/A Rain Light Rain
7:15 AM 66.6 °F - 57.7 °F 73% 29.46 in 7.0 mi South 19.6 mph 26.5 mph N/A Rain Rain
7:35 AM 65.7 °F - 58.3 °F 77% 29.50 in 2.5 mi WSW 16.1 mph 24.2 mph N/A Rain Heavy Rain
7:55 AM 62.6 °F - 57.7 °F 84% 29.46 in 1.8 mi South 12.7 mph 17.3 mph N/A Rain Heavy Rain
8:15 AM 58.8 °F - 54.0 °F 84% 29.53 in 3.0 mi West 28.8 mph 41.4 mph N/A Rain Rain
8:35 AM 51.6 °F - 46.4 °F 82% 29.57 in 7.0 mi West 21.9 mph 31.1 mph N/A Rain Light Rain
8:55 AM 48.7 °F - 44.1 °F 84% 29.59 in 5.0 mi West 24.2 mph 32.2 mph N/A Rain Light Rain
9:15 AM 47.7 °F - 42.6 °F 83% 29.61 in 10.0 mi West 17.3 mph 23.0 mph N/A   Overcast
9:35 AM 47.8 °F - 42.1 °F 80% 29.61 in 10.0 mi West 15.0 mph 21.9 mph N/A   Overcast
9:55 AM 47.8 °F - 41.5 °F 79% 29.64 in 10.0 mi West 18.4 mph 27.6 mph N/A   Overcast
10:15 AM 47.7 °F - 41.0 °F 78% 29.65 in 10.0 mi West 15.0 mph 23.0 mph N/A   Overcast
10:55 AM 45.1 °F 36.9 °F 39.4 °F 80% 29.70 in 7.0 mi West 21.9 mph 32.2 mph N/A   Overcast
11:15 AM 44.6 °F 36.4 °F 37.8 °F 77% 29.70 in 10.0 mi West 20.7 mph 27.6 mph N/A   Overcast
11:35 AM 45.0 °F 36.6 °F 37.2 °F 74% 29.71 in 10.0 mi WSW 21.9 mph 29.9 mph N/A   Overcast
11:55 AM 46.2 °F 38.7 °F 37.0 °F 70% 29.71 in 10.0 mi WSW 19.6 mph 36.8 mph N/A   Overcast
12:15 PM 46.9 °F - 36.3 °F 67% 29.72 in 10.0 mi West 25.3 mph 33.4 mph N/A   Overcast
12:35 PM 46.6 °F - 35.4 °F 65% 29.73 in 10.0 mi WSW 20.7 mph 31.1 mph N/A   Overcast
12:55 PM 45.9 °F 37.4 °F 35.4 °F 67% 29.74 in 10.0 mi West 24.2 mph 33.4 mph N/A   Overcast
1:15 PM 45.5 °F 37.3 °F 35.2 °F 67% 29.74 in 10.0 mi West 21.9 mph 27.6 mph N/A   Overcast
1:35 PM 45.9 °F 37.4 °F 34.7 °F 65% 29.75 in 10.0 mi West 24.2 mph 31.1 mph N/A   Overcast
1:55 PM 46.2 °F 38.7 °F 34.2 °F 63% 29.75 in 10.0 mi West 19.6 mph 31.1 mph N/A   Overcast
2:15 PM 46.0 °F 38.5 °F 33.6 °F 62% 29.77 in 10.0 mi WSW 19.6 mph 27.6 mph N/A   Overcast
2:35 PM 46.6 °F - 34.0 °F 62% 29.77 in 10.0 mi WSW 21.9 mph 29.9 mph N/A   Overcast
2:55 PM 46.2 °F 37.7 °F 33.6 °F 61% 29.78 in 10.0 mi West 25.3 mph 32.2 mph N/A   Overcast
3:15 PM 46.0 °F 38.0 °F 34.0 °F 63% 29.77 in 10.0 mi WSW 21.9 mph 32.2 mph N/A   Overcast
3:35 PM 46.9 °F - 33.8 °F 60% 29.78 in 10.0 mi SW 23.0 mph 28.8 mph N/A   Mostly Cloudy
3:55 PM 48.6 °F - 32.4 °F 54% 29.77 in 10.0 mi WSW 28.8 mph 34.5 mph N/A   Mostly Cloudy
4:15 PM 47.7 °F - 31.8 °F 54% 29.78 in 10.0 mi WSW 25.3 mph 31.1 mph N/A   Overcast
4:35 PM 47.3 °F - 31.8 °F 55% 29.80 in 10.0 mi WSW 23.0 mph 28.8 mph N/A   Overcast
4:55 PM 47.7 °F - 32.4 °F 55% 29.81 in 10.0 mi WSW 20.7 mph 32.2 mph N/A   Overcast
5:15 PM 48.4 °F - 32.0 °F 53% 29.81 in 10.0 mi WSW 23.0 mph 29.9 mph N/A   Overcast
5:35 PM 48.9 °F - 32.0 °F 52% 29.81 in 10.0 mi WSW 17.3 mph 28.8 mph N/A   Overcast
5:55 PM 47.7 °F - 32.2 °F 55% 29.82 in 10.0 mi WSW 19.6 mph 25.3 mph N/A   Overcast
6:15 PM 47.8 °F - 31.8 °F 54% 29.83 in 10.0 mi WSW 18.4 mph 29.9 mph N/A   Overcast
6:35 PM 47.3 °F - 31.6 °F 55% 29.84 in 10.0 mi WSW 20.7 mph 27.6 mph N/A   Overcast
6:55 PM 46.8 °F - 30.6 °F 53% 29.85 in 10.0 mi WSW 18.4 mph 25.3 mph N/A   Overcast
7:15 PM 46.0 °F 38.8 °F 30.4 °F 54% 29.86 in 10.0 mi West 18.4 mph 28.8 mph N/A   Overcast
7:35 PM 45.7 °F 36.9 °F 30.2 °F 55% 29.87 in 10.0 mi West 25.3 mph 31.1 mph N/A   Overcast
7:55 PM 45.1 °F 37.6 °F 30.2 °F 56% 29.87 in 10.0 mi West 18.4 mph 27.6 mph N/A   Overcast
8:15 PM 44.6 °F 36.9 °F 30.6 °F 58% 29.88 in 10.0 mi West 18.4 mph 24.2 mph N/A   Overcast
8:35 PM 44.2 °F 36.4 °F 30.7 °F 59% 29.88 in 10.0 mi West 18.4 mph 26.5 mph N/A   Overcast
8:55 PM 43.9 °F 36.5 °F 30.2 °F 59% 29.90 in 10.0 mi West 16.1 mph - N/A   Overcast
9:15 PM 43.7 °F 35.7 °F 30.4 °F 59% 29.91 in 10.0 mi West 18.4 mph 27.6 mph N/A   Overcast
9:35 PM 43.3 °F 35.8 °F 30.2 °F 60% 29.91 in 10.0 mi West 16.1 mph 23.0 mph N/A   Overcast
9:55 PM 43.0 °F 36.0 °F 30.7 °F 62% 29.92 in 10.0 mi WSW 13.8 mph 17.3 mph N/A   Overcast
10:15 PM 42.8 °F 35.4 °F 31.1 °F 63% 29.93 in 10.0 mi WSW 15.0 mph 21.9 mph N/A   Overcast
10:35 PM 42.4 °F 35.3 °F 31.5 °F 65% 29.93 in 10.0 mi WSW 13.8 mph - N/A   Overcast
10:55 PM 42.3 °F 34.8 °F 31.1 °F 65% 29.93 in 10.0 mi WSW 15.0 mph 19.6 mph N/A   Overcast
11:15 PM 42.1 °F 34.9 °F 31.6 °F 67% 29.94 in 10.0 mi WSW 13.8 mph - N/A   Overcast
11:35 PM 41.5 °F 34.6 °F 31.3 °F 67% 29.95 in 10.0 mi SW 12.7 mph - N/A   Overcast
11:55 PM 41.9 °F 34.0 °F 31.1 °F 66% 29.95 in 10.0 mi SW 16.1 mph 20.7 mph N/A   Overcast